Location: Fort Wayne
(41.1310°N, 85.1290°W)
Time: 13:34:12
(UTC-04:00)

Cosmos 1980 - Visible Passes

Search period start: 17 September 2014 00:00
Search period end: 27 September 2014 00:00
Orbit: 840 x 847 km, 71.0° (Epoch: 15 September)

Date Brightness Start Highest point End Pass type
(mag) Time Alt. Az. Time Alt. Az. Time Alt. Az.
17 Sep 5.3 03:43:53 31° NE 03:43:53 31° NE 03:46:43 10° NNE visible
17 Sep 5.3 05:25:45 19° NW 05:25:45 19° NW 05:29:45 10° N visible
18 Sep 5.6 03:30:01 25° NE 03:30:01 25° NE 03:32:17 10° NNE visible
18 Sep 5.3 05:11:53 20° NW 05:11:53 20° NW 05:15:23 10° N visible
19 Sep 5.9 03:16:07 20° NE 03:16:07 20° NE 03:17:50 10° NNE visible
19 Sep 5.4 04:57:58 20° NW 04:57:58 20° NW 05:01:00 10° N visible
20 Sep 6.2 03:02:11 17° NNE 03:02:11 17° NNE 03:03:23 10° NNE visible
20 Sep 5.5 04:44:03 19° NNW 04:44:03 19° NNW 04:46:38 10° N visible
21 Sep 6.4 02:48:14 14° NNE 02:48:14 14° NNE 02:48:56 10° NNE visible
21 Sep 5.7 04:30:05 18° NNW 04:30:05 18° NNW 04:32:15 10° N visible
22 Sep 6.5 02:34:15 11° NNE 02:34:15 11° NNE 02:34:30 10° NNE visible
22 Sep 5.8 04:16:06 17° NNW 04:16:06 17° NNW 04:17:52 10° N visible
23 Sep 6.0 04:02:06 16° N 04:02:06 16° N 04:03:30 10° N visible
24 Sep 6.1 03:48:05 14° N 03:48:05 14° N 03:49:06 10° N visible
25 Sep 6.3 03:34:03 13° N 03:34:03 13° N 03:34:43 10° N visible
26 Sep 6.4 03:20:00 11° N 03:20:00 11° N 03:20:20 10° N visible
